�N����,����,�~����,�C��,���x,�C��,����,���ϕ���,�ő�u�ԕ���,�ő厞����,���˗�,�I�_���x,�n�����x,�ő啗���N��,DTYPE
"19/02/04","00:10",0.2,7.6,98.1,1006.0,319.0,1.6,2.2,327.5,0.00,7.4,7.2,"00:06:08",1
"19/02/04","00:20",0.4,7.6,98.2,1005.2,264.3,0.8,1.3,273.7,0.00,7.4,7.3,"00:19:06",1
"19/02/04","00:30",0.0,7.7,98.2,1005.5,285.8,0.5,1.2,324.5,0.00,7.5,7.4,"00:22:16",1
"19/02/04","00:40",0.2,7.7,98.2,1005.2,309.6,1.0,1.6,333.8,0.00,7.5,7.2,"00:36:24",1
"19/02/04","00:50",0.0,7.7,98.2,1005.2,311.9,1.3,2.0,314.6,0.00,7.5,7.1,"00:44:40",1
"19/02/04","01:00",0.0,7.7,98.3,1005.0,315.2,1.2,1.9,332.3,0.00,7.5,7.2,"00:58:24",1
"19/02/04","01:10",0.0,7.7,98.4,1004.5,264.1,0.7,1.6,246.2,0.00,7.5,7.3,"01:02:58",1
"19/02/04","01:20",0.0,7.8,98.3,1004.5,312.0,1.0,1.6,323.0,0.00,7.6,7.3,"01:16:08",1
"19/02/04","01:30",0.0,7.8,98.4,1004.5,286.9,0.8,1.3,313.1,0.00,7.6,7.4,"01:22:40",1
"19/02/04","01:40",0.0,7.8,98.3,1004.5,264.1,0.7,2.0,309.8,0.00,7.6,7.2,"01:36:20",1
"19/02/04","01:50",0.0,7.9,98.3,1004.5,325.2,0.6,1.3,315.6,0.00,7.7,7.5,"01:43:28",1
"19/02/04","02:00",0.0,7.9,98.3,1004.8,310.7,1.0,1.6,316.3,0.00,7.7,7.5,"01:52:16",1
"19/02/04","02:10",0.0,7.9,98.4,1004.3,286.9,0.7,1.7,335.9,0.00,7.7,7.5,"02:04:58",1
"19/02/04","02:20",0.0,7.9,98.5,1004.3,305.7,1.2,2.5,312.1,0.00,7.7,7.5,"02:18:52",1
"19/02/04","02:30",0.0,7.9,98.5,1004.8,303.1,0.7,2.2,340.2,0.00,7.7,7.4,"02:25:28",1
"19/02/04","02:40",0.0,7.9,98.5,1005.0,252.7,1.1,1.9,338.6,0.00,7.7,7.4,"02:31:24",1
"19/02/04","02:50",0.0,8.0,98.5,1004.8,290.6,0.7,1.9,308.3,0.00,7.8,7.6,"02:46:36",1
"19/02/04","03:00",0.0,8.0,98.5,1004.5,344.1,1.1,1.9,340.0,0.00,7.8,7.3,"02:50:20",1
"19/02/04","03:10",0.0,8.0,98.5,1004.8,314.7,0.8,1.6,338.2,0.00,7.8,7.3,"03:05:02",1
"19/02/04","03:20",0.0,8.0,98.5,1004.5,246.9,1.0,2.0,314.1,0.00,7.8,7.5,"03:13:00",1
"19/02/04","03:30",0.0,8.0,98.6,1004.3,274.2,0.7,1.9,312.6,0.00,7.8,7.4,"03:24:02",1
"19/02/04","03:40",0.0,8.1,98.6,1004.8,329.6,0.8,1.4,335.4,0.00,7.9,7.5,"03:36:02",1
"19/02/04","03:50",0.0,8.1,98.6,1004.8,293.2,0.8,1.4,292.4,0.00,7.9,7.4,"03:44:50",1
"19/02/04","04:00",0.0,8.1,98.6,1004.8,294.0,1.0,1.3,323.8,0.00,7.9,7.3,"03:53:20",1
"19/02/04","04:10",0.0,8.1,98.7,1005.0,279.6,0.8,0.9,328.9,0.00,7.9,7.5,"04:04:08",1
"19/02/04","04:20",0.0,8.2,98.7,1005.0,307.6,0.8,1.1,301.3,0.00,8.0,7.5,"04:13:42",1
"19/02/04","04:30",0.0,8.2,98.7,1005.0,294.8,0.8,1.0,286.9,0.00,8.0,7.4,"04:22:36",1
"19/02/04","04:40",0.0,8.2,98.7,1005.0,289.4,0.6,1.2,310.4,0.00,8.0,7.4,"04:35:08",1
"19/02/04","04:50",0.0,8.2,98.7,1005.5,215.7,0.7,1.0,221.8,0.00,8.0,7.6,"04:45:16",1
"19/02/04","05:00",0.0,8.2,98.7,1005.5,326.8,1.2,2.5,337.4,0.00,8.0,7.6,"04:53:08",1
"19/02/04","05:10",0.0,8.2,98.7,1006.0,312.6,1.5,2.5,325.9,0.00,8.0,7.6,"05:02:08",1
"19/02/04","05:20",0.2,8.3,98.9,1006.4,282.9,1.0,3.1,225.9,0.00,8.2,7.7,"05:19:46",1
"19/02/04","05:30",0.0,10.9,98.1,1006.2,332.2,4.1,10.1,8.3,0.00,10.7,7.7,"05:23:26",1
"19/02/04","05:40",0.0,11.2,97.0,1006.9,313.9,3.9,7.2,325.9,0.00,10.8,7.6,"05:32:42",1
"19/02/04","05:50",0.0,11.3,96.8,1007.4,312.5,4.0,10.8,328.9,0.00,10.9,7.6,"05:45:52",1
"19/02/04","06:00",0.0,11.0,95.7,1007.8,300.0,2.3,6.0,351.1,0.00,10.4,7.7,"05:50:34",1
"19/02/04","06:10",0.0,10.2,97.4,1008.3,18.7,1.3,3.5,312.2,0.00,9.8,7.8,"06:07:12",1
"19/02/04","06:20",0.0,11.1,96.1,1008.3,332.5,3.0,5.4,311.1,0.00,10.5,7.7,"06:17:26",1
"19/02/04","06:30",0.0,11.5,94.9,1008.6,327.3,4.4,6.8,323.7,0.00,10.8,7.9,"06:28:34",1
"19/02/04","06:40",0.0,11.7,93.7,1009.0,297.5,3.2,6.2,327.5,0.00,10.8,7.7,"06:36:24",1
"19/02/04","06:50",0.0,11.6,93.3,1009.3,304.6,2.7,6.4,317.7,0.00,10.6,7.7,"06:48:56",1
"19/02/04","07:00",0.0,11.4,91.8,1009.5,319.7,2.7,5.4,332.4,0.00,10.2,7.9,"06:51:06",1
"19/02/04","07:10",0.0,11.3,90.8,1009.7,303.9,3.1,6.2,342.3,0.00,9.9,8.0,"07:02:52",1
"19/02/04","07:20",0.2,11.2,89.5,1010.0,326.9,4.5,7.7,344.1,0.00,9.6,7.7,"07:13:44",1
"19/02/04","07:30",0.0,10.9,89.2,1010.0,319.8,3.1,6.0,331.6,0.00,9.2,7.9,"07:29:04",1
"19/02/04","07:40",0.0,10.7,88.6,1010.4,297.3,2.1,4.5,311.3,0.00,8.9,7.9,"07:39:12",1
"19/02/04","07:50",0.0,10.6,88.5,1010.4,310.9,3.6,8.7,336.3,0.00,8.8,7.8,"07:40:02",1
"19/02/04","08:00",0.0,10.7,87.2,1010.4,321.9,4.7,7.8,325.1,0.00,8.7,7.8,"07:59:30",1
"19/02/04","08:10",0.0,10.9,86.1,1010.9,323.0,4.6,7.9,320.7,0.01,8.7,7.8,"08:04:30",1
"19/02/04","08:20",0.0,10.9,86.0,1011.4,303.9,3.4,5.2,300.5,0.01,8.7,7.8,"08:17:04",1
"19/02/04","08:30",0.0,11.1,85.5,1011.6,319.7,3.5,5.2,327.3,0.03,8.8,8.0,"08:20:56",1
"19/02/04","08:40",0.0,11.0,86.0,1011.6,323.2,2.3,5.2,330.8,0.05,8.8,8.1,"08:36:48",1
"19/02/04","08:50",0.0,11.0,86.3,1011.4,333.6,2.7,5.4,335.3,0.05,8.8,7.9,"08:45:20",1
"19/02/04","09:00",0.0,10.8,87.1,1011.2,329.0,3.6,5.6,325.3,0.06,8.8,8.1,"08:54:40",1
"19/02/04","09:10",0.2,10.6,87.9,1011.9,315.5,2.2,4.3,334.9,0.03,8.7,7.8,"09:00:16",1
"19/02/04","09:20",0.0,10.7,87.7,1012.1,342.6,1.7,3.1,329.2,0.06,8.8,8.1,"09:15:04",1
"19/02/04","09:30",0.0,10.4,87.7,1012.3,340.7,3.1,5.6,322.0,0.08,8.5,8.2,"09:24:10",1
"19/02/04","09:40",0.0,10.5,86.8,1012.6,335.6,4.1,7.1,331.6,0.10,8.4,8.1,"09:35:56",1
"19/02/04","09:50",0.0,10.7,86.0,1012.6,318.1,3.6,6.3,327.1,0.09,8.5,8.3,"09:45:12",1
"19/02/04","10:00",0.2,10.6,84.3,1012.6,324.9,4.6,7.2,318.0,0.15,8.1,8.2,"09:54:58",1
"19/02/04","10:10",0.0,11.0,83.2,1012.8,325.3,4.2,7.2,324.3,0.19,8.3,8.3,"10:00:12",1
"19/02/04","10:20",0.0,11.5,81.5,1012.3,327.0,4.7,7.5,337.2,0.19,8.5,8.3,"10:14:00",1
"19/02/04","10:30",0.0,11.6,79.0,1013.3,330.5,3.5,6.6,301.0,0.27,8.1,8.4,"10:28:24",1
"19/02/04","10:40",0.0,11.6,81.0,1012.8,336.2,2.7,5.1,314.6,0.17,8.5,8.7,"10:35:52",1
"19/02/04","10:50",0.0,11.5,77.9,1013.3,325.1,4.5,8.1,348.8,0.18,7.8,8.6,"10:48:48",1
"19/02/04","11:00",0.0,11.4,76.4,1013.8,331.1,5.7,10.2,335.9,0.21,7.4,8.7,"10:50:02",1
"19/02/04","11:10",0.0,11.7,75.8,1013.3,328.9,5.0,7.8,335.4,0.30,7.6,8.8,"11:08:08",1
"19/02/04","11:20",0.0,12.2,72.5,1013.5,327.8,4.7,8.5,342.1,0.40,7.4,8.9,"11:19:28",1
"19/02/04","11:30",0.0,12.5,71.8,1013.5,321.4,4.5,7.8,335.3,0.40,7.6,9.1,"11:21:28",1
"19/02/04","11:40",0.0,12.9,70.0,1013.8,320.0,4.5,8.0,319.3,0.47,7.6,9.2,"11:32:40",1
"19/02/04","11:50",0.0,12.2,74.5,1013.3,335.6,3.6,7.2,342.3,0.26,7.8,9.3,"11:45:44",1
"19/02/04","12:00",0.0,12.3,74.2,1013.5,328.8,3.2,8.2,333.7,0.33,7.9,9.3,"11:50:40",1
"19/02/04","12:10",0.0,11.1,76.5,1013.5,348.2,3.1,5.4,352.5,0.20,7.2,9.4,"12:06:16",1
"19/02/04","12:20",0.0,11.0,76.3,1012.8,348.5,3.5,8.2,353.3,0.20,7.0,9.7,"12:12:32",1
"19/02/04","12:30",0.0,12.1,74.8,1013.3,349.5,2.1,4.9,347.7,0.30,7.8,9.8,"12:22:24",1
"19/02/04","12:40",0.0,11.9,70.4,1012.8,340.6,2.8,5.9,336.5,0.26,6.7,9.9,"12:30:08",1
"19/02/04","12:50",0.0,12.6,69.1,1012.8,320.4,2.6,4.1,350.8,0.38,7.1,10.0,"12:49:12",1
"19/02/04","13:00",0.0,12.6,67.2,1012.8,328.9,3.4,6.8,330.7,0.48,6.7,10.1,"12:55:04",1
"19/02/04","13:10",0.0,12.0,70.1,1013.0,343.4,3.2,6.6,345.1,0.45,6.8,10.4,"13:02:00",1
"19/02/04","13:20",0.0,11.8,70.9,1013.3,327.3,3.1,5.4,347.0,0.21,6.7,10.4,"13:16:48",1
"19/02/04","13:30",0.0,11.9,71.3,1012.8,322.2,2.8,4.9,334.7,0.32,6.9,10.5,"13:20:16",1
"19/02/04","13:40",0.0,12.1,72.6,1012.8,299.0,2.3,5.0,30.9,0.34,7.4,10.6,"13:30:08",1
"19/02/04","13:50",0.0,12.5,72.8,1012.8,299.4,3.0,5.7,331.7,0.46,7.8,10.8,"13:48:08",1
"19/02/04","14:00",0.0,11.5,72.3,1012.6,321.4,4.1,8.1,332.2,0.23,6.7,10.7,"13:57:20",1
"19/02/04","14:10",0.0,11.5,69.6,1012.6,326.5,5.0,9.8,325.2,0.31,6.2,10.8,"14:03:12",1
"19/02/04","14:20",0.0,11.6,69.1,1013.0,320.2,4.1,7.2,337.7,0.24,6.2,10.8,"14:11:44",1
"19/02/04","14:30",0.0,11.9,68.2,1012.6,332.9,3.1,5.4,335.3,0.34,6.3,10.9,"14:20:48",1
"19/02/04","14:40",0.0,12.2,72.3,1012.6,341.5,2.3,5.4,345.4,0.24,7.4,11.0,"14:31:52",1
"19/02/04","14:50",0.0,11.8,71.7,1012.6,344.7,3.1,6.5,343.5,0.28,6.9,11.0,"14:43:44",1
"19/02/04","15:00",0.0,11.4,71.8,1012.8,355.3,2.5,7.0,348.8,0.15,6.5,11.1,"14:57:20",1
"19/02/04","15:10",0.0,11.7,71.4,1013.0,359.6,2.8,4.9,32.0,0.35,6.7,11.0,"15:06:56",1
"19/02/04","15:20",0.0,11.3,71.8,1013.3,359.1,2.8,8.0,34.6,0.27,6.4,10.9,"15:17:44",1
"19/02/04","15:30",0.0,10.6,71.9,1013.0,349.2,3.4,7.5,339.4,0.02,5.8,11.0,"15:28:48",1
"19/02/04","15:40",0.0,10.1,74.0,1013.3,338.1,4.1,7.8,333.5,0.02,5.7,11.1,"15:34:36",1
"19/02/04","15:50",0.0,9.8,75.7,1013.0,333.7,5.0,8.7,330.2,0.04,5.8,10.9,"15:46:48",1
"19/02/04","16:00",0.0,9.8,75.6,1013.8,337.4,4.2,8.9,345.1,0.05,5.7,10.9,"15:58:16",1
"19/02/04","16:10",0.0,9.8,74.4,1013.0,335.7,4.2,6.5,331.5,0.04,5.5,10.8,"16:07:44",1
"19/02/04","16:20",0.0,9.6,74.5,1013.5,333.1,4.6,7.5,331.2,0.03,5.3,10.3,"16:17:52",1
"19/02/04","16:30",0.0,9.6,74.9,1013.8,340.7,3.5,5.5,340.0,0.04,5.4,10.5,"16:21:28",1
"19/02/04","16:40",0.0,9.5,74.6,1013.8,339.1,2.6,4.3,304.5,0.01,5.3,10.6,"16:34:48",1
"19/02/04","16:50",0.0,9.4,74.8,1014.0,335.6,3.1,4.8,324.0,0.01,5.2,10.4,"16:49:36",1
"19/02/04","17:00",0.0,9.3,74.6,1014.2,328.5,3.6,7.5,341.9,0.01,5.1,10.3,"16:52:08",1
"19/02/04","17:10",0.0,9.2,73.4,1014.5,317.8,4.6,7.8,318.9,0.00,4.7,10.1,"17:07:12",1
"19/02/04","17:20",0.0,9.1,72.7,1014.7,324.8,3.7,6.2,333.9,0.00,4.5,10.0,"17:16:24",1
"19/02/04","17:30",0.0,9.0,73.3,1014.7,322.2,2.5,4.0,329.2,0.00,4.5,10.0,"17:24:24",1
"19/02/04","17:40",0.0,8.8,74.5,1014.9,316.7,1.6,2.5,328.9,0.00,4.6,9.9,"17:33:04",1
"19/02/04","17:50",0.0,8.8,74.0,1014.9,310.4,2.8,4.5,335.0,0.00,4.5,9.7,"17:40:40",1
"19/02/04","18:00",0.0,8.7,74.8,1015.2,288.9,1.8,3.1,313.9,0.00,4.5,9.6,"17:50:16",1
"19/02/04","18:10",0.0,8.6,75.2,1015.4,279.1,2.2,3.3,300.0,0.00,4.5,9.4,"18:07:20",1
"19/02/04","18:20",0.0,8.5,75.6,1015.6,284.8,2.1,3.4,270.5,0.00,4.5,9.5,"18:11:28",1
"19/02/04","18:30",0.0,8.4,76.3,1015.9,311.7,2.3,6.2,337.3,0.00,4.5,9.4,"18:29:52",1
"19/02/04","18:40",0.0,8.3,77.0,1015.6,285.5,2.6,4.7,257.2,0.00,4.5,9.2,"18:39:12",1
"19/02/04","18:50",0.0,8.2,77.0,1015.9,284.0,2.6,3.7,270.9,0.00,4.5,9.2,"18:42:48",1
"19/02/04","19:00",0.0,8.0,77.5,1015.9,314.6,2.6,4.1,324.9,0.00,4.4,9.1,"18:52:08",1
"19/02/04","19:10",0.0,7.9,77.9,1015.9,312.9,2.3,3.9,309.9,0.00,4.3,9.3,"19:06:16",1
"19/02/04","19:20",0.0,7.6,78.6,1016.1,321.9,1.8,3.7,327.7,0.00,4.2,9.0,"19:19:44",1
"19/02/04","19:30",0.0,7.4,79.8,1015.6,293.6,2.1,2.9,321.9,0.00,4.2,9.0,"19:20:56",1
"19/02/04","19:40",0.0,7.0,80.0,1015.6,326.3,2.0,3.4,325.0,0.00,3.8,9.0,"19:31:20",1
"19/02/04","19:50",0.0,6.5,83.0,1015.9,330.7,1.8,2.7,320.9,0.00,3.9,9.0,"19:40:08",1
"19/02/04","20:00",0.0,6.2,84.5,1015.6,322.4,2.1,2.9,318.2,0.00,3.8,8.7,"19:59:04",1
"19/02/04","20:10",0.0,5.9,86.0,1016.1,326.9,1.7,2.5,317.8,0.00,3.8,8.8,"20:06:56",1
"19/02/04","20:20",0.0,5.6,86.5,1016.1,320.6,2.1,3.3,325.5,0.00,3.6,8.5,"20:16:08",1
"19/02/04","20:30",0.0,5.3,88.6,1015.6,296.5,1.6,2.2,312.8,0.00,3.6,8.7,"20:20:56",1
"19/02/04","20:40",0.0,5.1,88.8,1015.6,303.7,1.8,2.4,322.2,0.00,3.4,8.5,"20:33:12",1
"19/02/04","20:50",0.0,4.8,89.5,1015.6,267.4,1.0,2.2,296.2,0.00,3.3,8.5,"20:49:36",1
"19/02/04","21:00",0.0,4.6,90.4,1015.6,293.8,2.1,3.1,333.1,0.00,3.2,8.2,"20:50:02",1
"19/02/04","21:10",0.0,4.3,90.8,1015.6,300.6,1.7,3.2,319.0,0.00,3.0,8.1,"21:01:04",1
"19/02/04","21:20",0.0,4.1,92.1,1015.9,302.3,1.5,2.9,311.2,0.00,3.0,8.1,"21:12:24",1
"19/02/04","21:30",0.0,3.8,91.8,1015.6,306.1,1.6,2.5,316.6,0.00,2.6,8.0,"21:20:02",1
"19/02/04","21:40",0.0,3.4,92.8,1016.1,297.3,1.7,2.8,319.3,0.00,2.4,7.8,"21:36:08",1
"19/02/04","21:50",0.0,3.6,93.9,1015.9,302.4,1.3,2.7,313.7,0.00,2.8,7.7,"21:48:40",1
"19/02/04","22:00",0.0,3.7,94.4,1015.6,296.3,1.8,2.7,321.1,0.00,2.9,7.6,"21:59:12",1
"19/02/04","22:10",0.0,4.0,93.5,1016.1,320.1,2.3,3.5,331.5,0.00,3.1,7.5,"22:01:52",1
"19/02/04","22:20",0.0,4.2,94.0,1016.1,314.6,2.6,4.1,333.0,0.00,3.4,7.5,"22:19:28",1
"19/02/04","22:30",0.0,4.1,93.7,1016.4,323.0,3.0,3.7,320.1,0.00,3.2,7.6,"22:20:48",1
"19/02/04","22:40",0.0,3.9,94.0,1015.9,323.1,2.6,3.4,326.0,0.00,3.1,7.4,"22:37:28",1
"19/02/04","22:50",0.0,3.8,94.1,1016.1,302.3,2.5,4.1,320.9,0.00,3.0,7.4,"22:46:24",1
"19/02/04","23:00",0.0,3.4,93.6,1016.1,320.2,2.1,2.8,323.5,0.00,2.5,7.3,"22:59:52",1
"19/02/04","23:10",0.0,3.0,94.5,1016.4,307.3,1.8,2.6,319.4,0.00,2.2,7.2,"23:05:04",1
"19/02/04","23:20",0.0,2.8,95.0,1016.1,291.3,1.3,1.9,309.8,0.00,2.1,7.2,"23:12:16",1
"19/02/04","23:30",0.0,3.3,95.3,1016.1,316.9,2.6,4.5,313.0,0.00,2.7,6.9,"23:27:36",1
"19/02/04","23:40",0.0,3.8,95.2,1016.4,319.1,3.2,5.1,325.1,0.00,3.1,7.2,"23:34:48",1
"19/02/04","23:50",0.0,4.1,94.8,1016.6,310.6,3.1,4.7,333.0,0.00,3.4,6.8,"23:47:28",1
"19/02/04","24:00",0.0,4.1,94.4,1016.8,320.4,3.4,4.5,325.4,0.00,3.3,6.8,"23:52:32",1
